User: anonymous
Location: Unspecified
(0.0000°N, 0.0000°E)
Time: 09:19:48
(UTC+02:00)
Language:

Resurs 01 Rocket - Orbit

View from above orbital plane
View from above orbital plane
View from above satellite
View from above satellite

Ground track
Ground track

The orbit data is extracted from the following two-line orbital elements,

1 23343U 94074B   14110.53599324  .00000806  00000-0  12455-3 0  9800
2 23343 098.2235 113.4193 0007828 158.0107 314.3495 14.76076516 46591
Epoch (UTC): 20 April 2014 12:51:49
Eccentricity: 0.0007828
inclination: 98.2235°
perigee height: 636 km
apogee height: 647 km
right ascension of ascending node: 113.4193°
argument of perigee: 158.0107°
revolutions per day: 14.76076516
mean anomaly at epoch: 314.3495°
orbit number at epoch: 4659

The dashed part of the orbit path shows where the satellite is in the earth's shadow,  

DLR